Flag for Australia Weather past 2 weeks in Hobart, Tasmania, Australia

Now
59 °F

Passing clouds.


Feels Like: 57 °F
Forecast: 43 / 68 °F
Wind: 13 mph from Southeast

Location: Hobart Airport

Current Time: Oct 23, 2014 at 3:57:00 PM

Latest Report: Oct 23, 2014 at 3:00 PM


Visibility: N/A

Pressure: 30.27 "Hg

Humidity: 45%

Dew point: 37 °F

Location of HobartLocation

Historic Weather in Hobart — Graph

°F

Hobart temperature yesterday

Maximum temperature yesterday: 75 °F (at 1:00 PM)
Minimum temperature yesterday: 50 °F (at 4:30 AM)
Average temperature yesterday: 60 °F

Past Weeks' High & Low Weather Summary

 TemperatureHumidityPressure
High75 °F (Oct 22, 1:00 PM)94% (Oct 14, 11:30 PM)30.57 "Hg (Oct 14, 11:30 PM)
Low37 °F (Oct 14, 6:00 AM)25% (Oct 12, 6:00 PM)29.45 "Hg (Oct 12, 6:00 PM)
Average55 °F58%30.07 "Hg
* Reported Oct 8 2:00 PM — Oct 23 2:00 PM, Hobart, Weather by CustomWeather, © 2014

Note: Actual official high and low records may vary slightly from our data, if they occured in-between our weather recording intervals... More about our weather records

Advertising

Hobart weather history for previous 24 hours

 ConditionsComfort  
Time TempWeatherWind HumidityBarometerVisibility
2:00 PM
Oct 23
59 °FPassing clouds.13 mph45%30.27 "HgN/A
1:30 PM59 °FPassing clouds.14 mph48%30.27 "HgN/A
1:00 PM59 °FPassing clouds.14 mph45%30.27 "HgN/A
12:30 PM57 °FPassing clouds.12 mph48%30.27 "HgN/A
12:00 PM57 °FPassing clouds.10 mph48%30.30 "HgN/A
11:30 AM57 °FScattered clouds.10 mph44%30.30 "HgN/A
11:00 AM55 °FPartly sunny.10 mph51%30.30 "HgN/A
10:30 AM55 °FPartly sunny.12 mph51%30.30 "HgN/A
10:00 AM55 °FPartly sunny.9 mph51%30.30 "HgN/A
9:30 AM54 °FPartly sunny.12 mph54%30.30 "HgN/A
9:00 AM54 °FPartly sunny.14 mph51%30.30 "HgN/A
8:30 AM54 °FPartly sunny.15 mph54%30.30 "HgN/A
8:00 AM54 °FPartly sunny.10 mph54%30.27 "HgN/A
7:30 AM52 °FPartly sunny.13 mph58%30.27 "HgN/A
7:00 AM52 °FPartly sunny.15 mph58%30.24 "HgN/A
6:30 AM52 °FPartly sunny.15 mph58%30.24 "HgN/A
6:00 AM52 °FPassing clouds.15 mph58%30.21 "HgN/A
5:30 AM52 °FPassing clouds.13 mph58%30.21 "HgN/A
5:00 AM52 °FPassing clouds.16 mph58%30.18 "HgN/A
4:30 AM54 °FPassing clouds.15 mph58%30.18 "HgN/A
4:00 AM54 °FPassing clouds.17 mph58%30.18 "HgN/A
3:30 AM54 °FPassing clouds.20 mph63%30.18 "HgN/A
3:00 AM54 °FPassing clouds.17 mph67%30.18 "HgN/A
2:30 AM54 °FPassing clouds.17 mph72%30.18 "HgN/A
2:00 AM54 °FPassing clouds.16 mph82%30.15 "HgN/A
1:30 AM55 °FPassing clouds.17 mph82%30.15 "HgN/A
1:00 AM55 °FPassing clouds.15 mph82%30.15 "HgN/A
12:30 AM57 °FPassing clouds.17 mph77%30.12 "HgN/A
12:00 AM57 °FPassing clouds.20 mph72%30.12 "HgN/A
11:30 PM
Oct 22
57 °FPartly cloudy.17 mph72%30.09 "HgN/A
11:00 PM57 °FPassing clouds.16 mph72%30.09 "HgN/A
10:30 PM57 °FPassing clouds.10 mph77%30.09 "HgN/A
10:00 PM59 °FPassing clouds.12 mph77%30.07 "HgN/A
9:30 PM57 °FPassing clouds.7 mph88%30.07 "HgN/A
9:00 PM57 °FClear.7 mph88%30.07 "Hg10 mi
8:30 PM57 °FClear.13 mph82%30.04 "Hg10 mi
8:00 PM59 °FClear.17 mph77%30.01 "Hg10 mi
7:30 PM59 °FBroken clouds.22 mph68%29.98 "HgN/A
7:00 PM61 °FSunny.20 mph55%29.98 "Hg10 mi
6:30 PM64 °FSunny.15 mph49%29.95 "Hg10 mi
6:00 PM66 °FSunny.12 mph49%29.92 "Hg10 mi
5:30 PM68 °FSunny.13 mph46%29.95 "Hg10 mi
5:00 PM66 °FSunny.9 mph52%29.92 "Hg10 mi
4:30 PM68 °FSunny.9 mph53%29.92 "Hg10 mi
4:00 PM68 °FSunny.14 mph49%29.92 "Hg10 mi
3:30 PM73 °FSunny.14 mph33%29.92 "Hg10 mi
3:00 PM73 °FSunny.15 mph31%29.92 "Hg10 mi
Weather by CustomWeather, © 2014

See weather overviewHow to use our weather pages